333 Desert Eagle Observatory. Observer W. K. Y. Yeung. 0.45-m f/3
Schmidt-Cassegrain + CCD.
557 Ondrejov. Observer P. Kusnirak. 0.65-m f/3.6 reflector + CCD.
599 Campo Imperatore-CINEOS. Observers A. Boattini, A. Di Paola. 0.60-m f/3
Schmidt + CCD.
608 Haleakala-NEAT/MSSS. Observers S. Pravdo, M. Hicks, K. Lawrence,
D. MacDonald, P. Kervin, J. Africano. 1.2-m reflector + CCD.
611 Starkenburg. Observer F. Hormuth. 0.45-m f/4.4 reflector + CCD.
620 Observatorio Astronomico de Mallorca. Observers S. Sanchez, R. Stoss,
J. Nomen. 0.30-m f/9 Schmidt-Cassegrain + CCD.
699 Lowell Observatory-LONEOS. Observer M. E. Van Ness. 0.59-m LONEOS
Schmidt + CCD.
704 Lincoln Laboratory ETS, New Mexico. Observers M. Blythe, F. Shelly,
M. Bezpalko, R. Huber, L. Manguso, D. Torres, R. Kracke, M. McCleary,
H. Stange. Measurers J. Stuart, R. Sayer, J. Evans, J. Kommers. 1.0-m
f/2.15 reflector + CCD.
854 Sabino Canyon Observatory, Tucson. Observer J. E. McGaha. 0.30-m f/10.0
Schmidt-Cassegrain + CCD.
941 Observatorio Pla D'Arguines. Observer R. Ferrando. 0.30-m
Schmidt-Cassegrain + CCD.
A50 Andrushivka Astronomical Observatory. Observers Y. Ivashchenko, V. Lokot,
G. Kovalchuk, O. Gerashchenko. 0.6-m reflector + CCD.
E14 Ngunnawal. Observer D. Higgins. 0.25-m f/3.4 Schmidt-Cassegrain + CCD.
G90 Three Buttes Observatory, Tucson. Observer G. R. Jones. 0.32-m
Ritchey-Chretien + CCD.
J87 La Canada. Observer J. Lacruz. 0.30-m f/3.3 Schmidt-Cassegrain + CCD.
J95 Great Shefford. Observer P. Birtwhistle. 0.30-m f/6.3 Schmidt-Cassegrain
+ CCD.
Orbital elements:
2003 SO84 PHA 0.016
Epoch 2003 Sept. 18.0 TT = JDT 2452900.5 MPC
M 35.29401 (2000.0) P Q
n 0.63081963 Peri. 108.04577 +0.24649101 +0.96907998
a 1.3464780 Node 176.17072 -0.94059718 +0.24200655
e 0.3806751 Incl. 9.68294 -0.23349330 +0.04813340
P 1.56 H 20.5 G 0.15
From 143 observations 2003 Sept. 20-21.
Ephemeris:
2003 SO84 a,e,i = 1.35, 0.38, 10 q = 0.8339
Date TT R. A. (2000) Decl. Delta r Elong. Phase V
2003 09 18 03 17.92 +15 06.0 0.053 1.035 123.5 54.0 16.2
2003 09 19 03 04.82 +11 17.1 0.057 1.041 128.4 49.1 16.2
2003 09 20 02 53.65 +07 56.6 0.061 1.047 132.7 44.9 16.3
2003 09 21 02 44.05 +05 02.0 0.066 1.053 136.4 41.1 16.3
2003 09 22 02 35.70 +02 29.9 0.071 1.059 139.6 37.9 16.4
2003 09 23 02 28.38 +00 17.5 0.076 1.065 142.5 35.1 16.5
2003 09 24 02 21.91 -01 38.2 0.081 1.071 144.9 32.6 16.6
2003 09 25 02 16.14 -03 19.6 0.087 1.077 147.1 30.4 16.7
2003 09 26 02 10.97 -04 48.6 0.092 1.083 149.0 28.5 16.8
2003 09 27 02 06.29 -06 07.1 0.098 1.089 150.7 26.8 16.8
2003 09 28 02 02.05 -07 16.5 0.104 1.095 152.1 25.4 16.9
2003 09 29 01 58.18 -08 18.0 0.110 1.101 153.4 24.1 17.0
2003 09 30 01 54.62 -09 12.7 0.116 1.107 154.4 23.0 17.1
2003 10 01 01 51.36 -10 01.4 0.122 1.113 155.3 22.0 17.2
2003 10 02 01 48.34 -10 44.8 0.128 1.119 156.1 21.2 17.3
2003 10 03 01 45.54 -11 23.6 0.134 1.125 156.7 20.6 17.4
2003 10 04 01 42.95 -11 58.2 0.141 1.131 157.2 20.0 17.5
2003 10 05 01 40.53 -12 29.1 0.147 1.137 157.6 19.6 17.6
2003 10 06 01 38.27 -12 56.7 0.154 1.144 157.9 19.2 17.7
2003 10 07 01 36.16 -13 21.3 0.160 1.150 158.0 19.0 17.8
2003 10 08 01 34.19 -13 43.3 0.167 1.156 158.1 18.8 17.9
2003 10 18 01 20.01 -15 37.5 0.238 1.217 154.9 20.3 18.8
2003 10 28 01 12.91 -15 35.5 0.319 1.276 148.5 24.0 19.7
2003 11 07 01 10.95 -14 31.2 0.408 1.334 141.3 27.6 20.4
2003 11 17 01 12.95 -12 52.2 0.506 1.390 134.2 30.7 21.1
2003 11 27 01 18.09 -10 53.1 0.613 1.443 127.3 33.0 21.6
Brian G. Marsden (C) Copyright 2003 MPC M.P.E.C. 2003-S37
Read MPEC 2003-S36
Read MPEC 2003-S38
Enter an MPEC number in one of the following forms: